{"data":{"norad_id":54647,"epoch":"2026-05-25T00:38:53.409984Z","epoch_age_seconds":65988,"freshness":"FRESH","line1":"1 54647U 22166F   26145.02700706  .00000036  00000+0  55975-4 0  9996","line2":"2 54647  87.9253 248.5899 0002469  94.9256 265.2160 13.21826285168446","mean_motion":13.21826285,"eccentricity":0.0002469,"inclination_deg":87.9253,"raan_deg":248.5899,"arg_perigee_deg":94.9256,"mean_anomaly_deg":265.216,"bstar":5.5975e-5,"rev_number":16844,"period_min":108.94018498051,"perigee_km":1175.8867332164,"apogee_km":1179.617831344,"semimajor_km":7555.8892822802,"source":"CELESTRAK","updated_at":"2026-05-25T13:38:22.626835Z"}}